Starlink 1333

operational
NORAD ID: 45580 Int'l Des: 2020-025 Owner: SPXS Country: US Constellation: starlink
LEOCIRCULAR

Über Starlink 1333

Beschreibung wird geladen...

Live-Position

3D-Globus wird geladen...

Nächste Überflüge

Höhenverlauf

Altitude vs Time

uPlot chart will show altitude changes over time

Zweizeiliger Elementsatz

1 45580U 20025BB 26062.16189294 .00002798 00000-0 10659-3 0 9997
2 45580 53.1603 108.1308 0001402 96.3914 263.7246 15.30189775324502
Epoch: 3. März 2026 • Age: 16 hours

Aktueller Status

Höhe 488.9 km
Geschwindigkeit 7.62 km/s
Subsatellitenpunkt -39.27°S, 23.78°E
Startdatum 22. Apr. 2020
Alter 5.8 years
Typ internet

Technische Details

Klassifizierung Payload
Masse 260.00 kg
Trockenmasse 248.00 kg
Gesamtmasse 260.00 kg
Länge 0.20 m
Durchmesser 2.80 m
Spannweite 9.00 m
Form Box + pan
Hersteller SPXS
Bus-Typ Starlink
Phasenstatus In Orbit
Besitzer/Staat SPXS/US

Große Konstellationen

Loading constellations...